CAPE
2023 2478 2791 2812 2745 2626 2442 2475 2344 2274 2063 2066 1816 1764 1805 1934 1944 1850 1742 1630 1571 1579 1512 1506 1530 1508 1554 1640 1710 1771 1672 1889 1955 1965 1975 1798 1638 1426 1289 1291 1364 1464 1575 1730 1599 1383 1247 1127 1466 1634 1710 1673 1507 1261 1317 1302 1215 926 726 750 728 573 561 599 570 370 219 207 168 201 106 135 164 131 40 10 219 584 662 786 878 912 913 974 1086
2026 2614 2744 2740 2711 2627 2531 2390 2333 2182 2145 2069 1807 1834 1895 1955 1963 1875 1799 1669 1606 1565 1520 1540 1544 1563 1638 1749 1760 1734 1808 1929 1957 2040 1980 1886 1785 1610 1676 1737 1837 1973 1932 1620 1368 1168 1028 1038 1448 1512 1540 1537 1546 1404 1332 1287 1326 1319 1254 1100 742 634 718 734 745 637 467 316 232 119 34 50 58 60 37 37 479 531 698 866 924 742 880 1099 1192
2202 2586 2736 2803 2759 2648 2440 2397 2308 2210 2104 1993 1797 1893 1913 1973 1927 1916 1823 1764 1624 1590 1625 1592 1565 1574 1602 1590 1666 1596 1849 2021 2081 2212 2273 2268 2138 2040 2106 2210 2201 2182 1540 1211 986 957 972 977 982 945 1159 1252 1390 1540 1441 1356 1272 1198 1110 962 838 750 753 733 812 601 508 284 274 325 308 287 130 27 18 511 633 596 866 884 922 946 923 1077 1048
2210 2462 2669 2749 2691 2454 2429 2356 2257 2200 2168 2134 2060 1982 1966 2020 2032 2009 1942 1827 1734 1671 1616 1692 1694 1649 1609 1598 1674 1714 1796 1960 2081 2258 2409 2338 2323 2490 2544 2418 2031 1776 1573 1279 1259 1293 1276 1241 1271 1162 1201 1326 1505 1581 1543 1526 1403 1280 1277 1241 991 828 880 766 634 481 389 395 323 266 230 26 132 196 197 210 581 707 957 957 904 915 927 1001 999
2199 2393 2567 2517 2366 2404 2353 2334 2297 2264 2233 2102 2037 2170 2104 2109 2158 2085 1983 1879 1765 1628 1660 1747 1737 1769 1702 1626 1587 1592 1715 2124 2394 2413 2398 2421 2436 2390 1910 1665 1618 1589 1538 1447 1407 1348 1240 1159 1135 1091 1106 1241 1431 1501 1501 1369 1223 1189 1253 1270 1171 1012 996 821 558 1121 1153 388 213 157 8 20 127 270 136 98 487 906 858 979 966 888 734 941 918
2140 2289 2294 2236 2157 2283 2311 2322 2290 2263 2202 2086 2180 2298 2188 2184 2105 2138 2018 1892 1755 1696 1691 1735 1746 1773 1704 1664 1662 1688 1725 2041 2333 2456 2413 2321 2188 1932 1657 1637 1580 1497 1388 1307 1285 1190 1168 1176 1136 1080 1137 1264 1416 1464 1491 1398 1285 1231 1153 1151 1187 1210 1244 1244 1108 1215 1352 685 398 69 30 47 87 107 212 182 156 182 611 851 789 578 725 936 928
2105 2096 2068 2068 2088 2246 2282 2220 2246 2329 2179 2188 2264 2347 2354 2206 2226 2198 2020 1922 1837 1806 1763 1846 1762 1714 1761 1706 1773 1809 1798 1716 2146 2143 2063 2091 2004 1918 1690 1579 1526 1400 1285 1320 1474 1407 1316 1219 1093 1159 1240 1264 1356 1368 1378 1274 1264 1212 1186 1147 1216 1254 1199 1338 1298 1235 1532 1096 133 18 69 66 98 146 291 203 165 171 494 748 649 631 823 944 960
1924 1924 1976 2030 2108 2365 2235 2212 2255 2319 2292 2270 2401 2384 2420 2302 2226 2231 2079 1974 1893 1896 1871 1906 1909 1832 1736 1748 1785 1824 1765 1745 2040 2019 1975 2143 2057 1972 1847 1546 1494 1401 1392 1448 1406 1413 1309 1198 1221 1160 1114 1243 1306 1282 1369 1374 1414 1455 1501 1476 1560 1634 1676 1507 1543 1459 1415 707 367 235 110 116 135 152 259 242 183 203 522 753 592 507 766 789 843
1850 1909 1998 2093 2271 2358 2238 2119 2150 2351 2434 2423 2425 2377 2409 2331 2272 2276 2187 2000 1964 1935 1891 1948 1932 1903 1845 1797 1720 1813 1947 1832 1809 1992 2205 2205 2112 2028 2058 2168 1970 1836 1746 1680 1554 1632 1352 1234 1237 1136 1203 1092 1196 1427 1454 1424 1476 1403 1485 1570 1599 1741 1842 1898 1912 1701 1606 422 416 386 328 211 238 274 295 274 202 385 350 448 576 361 585 665 639
1847 1930 2062 2179 2256 2389 2249 2169 2237 2471 2524 2472 2488 2489 2348 2303 2256 2225 2157 2014 1993 1985 1987 1991 1997 1937 1867 1797 1780 1925 2210 2190 2174 2221 2217 2190 2312 2206 2014 1842 1584 1515 1524 1501 1443 1363 1316 1290 1210 1104 1068 1136 1310 1358 1485 1472 1533 1614 1540 1694 1724 1804 1899 1794 1220 950 413 505 493 459 604 544 166 209 352 317 196 149 153 402 1196 476 344 351 595
1836 1998 2122 2237 2250 2302 2212 2255 2379 2433 2539 2276 2195 2432 2377 2269 2354 2206 2126 2000 1988 2004 2050 1935 1947 1900 1872 1806 1718 1846 2138 2031 2064 2180 2031 2040 2078 2054 1858 1866 1665 1619 1504 1424 1369 1376 1393 1466 1307 1165 1122 1248 1352 1450 1374 1530 1457 1599 1741 1704 1626 1826 1995 1605 757 458 400 471 479 438 502 567 70 143 342 261 256 233 160 311 768 559 470 446 471
1860 2022 2195 2280 2450 2276 2276 2295 2397 2497 2528 2530 2525 2461 2267 2202 2219 2122 2001 1935 1984 1913 1880 1972 1954 1849 1827 1796 1669 1803 1974 1918 1937 2071 1944 1854 1883 1828 1713 1645 1675 1629 1575 1373 1385 1474 1659 1648 1443 1392 1312 1458 1404 1393 1384 1468 1510 1422 1496 1562 1747 1984 1906 1549 567 424 532 488 417 419 238 94 17 72 170 158 178 98 115 96 83 72 92 218 486
1840 2050 2246 2317 2342 2372 2294 2398 2454 2544 2577 2587 2524 2412 2305 2298 2266 2031 1963 1999 2091 1946 1875 1853 1885 1950 1816 1740 1743 1828 1984 2016 2276 2118 1885 1767 1802 1681 1586 1531 1368 1383 1377 1432 1532 1739 1843 1716 1444 1352 1408 1383 1274 1279 1383 1404 1513 1602 1564 1597 1821 1985 1769 1311 495 639 639 462 348 394 154 91 140 332 364 361 235 194 145 112 108 112 87 60 402
1802 2047 2225 2283 2320 2555 2336 2364 2463 2626 2625 2568 2459 2331 2328 2380 2168 2004 2000 2051 2081 2006 2004 1920 1993 1977 1956 1838 1825 1912 1986 2078 2084 1963 1949 1828 1690 1647 1887 1955 1766 1564 1585 1762 1820 1851 1659 1512 1389 1294 1329 1283 1239 1373 1397 1474 1447 1513 1450 1524 1769 2026 1839 904 670 738 598 425 639 376 280 267 130 311 256 285 361 294 251 202 148 141 127 109 66
1827 2038 2170 2266 2388 2440 2545 2494 2557 2511 2483 2417 2316 2261 2243 2151 2018 2004 1982 2018 2068 2072 2010 1952 2094 1945 1925 1841 1822 1931 1992 1815 1891 1894 1904 1780 1666 1677 1766 1719 1832 1903 1752 1733 1822 1710 1567 1435 1346 1316 1285 1284 1327 1318 1329 1336 1284 1299 1359 1315 1679 2073 1723 864 747 687 584 739 523 426 459 558 838 762 422 178 196 237 231 247 162 120 115 101 79
1874 2038 2103 2172 2308 2391 2439 2492 2448 2379 2382 2361 2271 2198 2131 1994 1892 1861 1868 1946 2096 1991 1778 1810 1973 1930 1797 1742 1746 1758 1862 1961 1892 1839 1718 1681 1611 1577 1605 1579 1771 1622 1490 1444 1472 1537 1478 1474 1430 1383 1353 1350 1202 1234 1085 1218 1183 1180 1371 1548 1814 2166 1928 1160 685 658 771 625 446 569 630 624 535 420 427 391 367 314 210 190 203 195 162 121 78
1850 1968 2031 2101 2208 2272 2238 2185 2389 2429 2292 2233 2192 2066 1953 1728 1424 1340 1538 1674 1636 1391 1356 1348 1347 1378 1602 1630 1720 1716 1704 1862 1870 1715 1530 1422 1604 1563 1519 1452 1352 1242 1195 1333 1411 1414 1421 1484 1407 1376 1300 1206 1100 1083 1131 1002 970 1054 1397 1571 1708 2195 2196 1547 770 811 751 738 781 649 618 721 692 474 420 308 195 140 137 144 102 100 102 79 52
1828 1890 1959 2049 2131 2139 2081 2032 2071 2066 2017 2101 1930 1728 1574 1435 1402 1449 1451 1286 1157 1130 1219 1234 1197 1252 1314 1611 1661 1668 1730 1701 1579 1443 1483 1509 1618 1536 1462 1369 1152 1049 1301 1308 1228 1230 1282 1204 1220 1175 1190 1074 993 902 973 885 1046 1173 1297 1299 1744 1920 1985 1577 876 796 798 823 767 635 649 876 634 378 438 519 439 342 305 280 253 191 172 126 112
1763 1872 1923 1982 1965 2003 1942 1878 1867 1804 1725 1624 1509 1457 1422 1396 1325 1225 1153 1109 1003 934 1021 1100 1064 1131 1333 1530 1429 1754 1625 1649 1647 1581 1604 1601 1476 1423 1334 1194 1129 1059 1058 1003 954 866 1130 1056 1106 1046 1035 918 958 699 708 681 891 1119 1108 1537 1584 1510 1711 919 828 768 821 823 748 603 704 899 801 784 681 530 295 118 71 87 183 211 226 200 142
1667 1749 1823 1834 1831 1793 1733 1706 1672 1604 1552 1460 1428 1353 1255 1243 1254 1140 1026 930 921 792 989 1014 997 1126 1256 1377 1572 1540 1721 1752 1657 1588 1513 1573 1482 1354 1196 1104 1079 1005 978 953 866 850 866 1052 928 845 693 688 605 505 696 654 788 1037 1289 1423 1172 1044 953 1027 874 810 825 742 693 630 999 986 822 909 807 382 250 310 294 248 237 251 221 182 141
1442 1571 1670 1690 1640 1613 1576 1565 1540 1507 1422 1384 1345 1261 1204 1153 1098 970 934 916 845 876 844 822 981 975 1114 1182 1151 1098 1137 1322 1502 1411 1496 1388 1446 1344 1162 1056 980 975 959 869 836 862 1040 910 829 661 679 673 636 670 792 764 876 865 936 1478 927 923 875 890 920 802 710 726 798 802 1251 1116 1005 1030 780 560 454 388 340 296 214 240 221 182 172
1422 1371 1586 1598 1519 1488 1495 1507 1467 1398 1315 1288 1204 1088 1083 991 757 772 789 863 798 776 668 754 882 866 1058 1104 1123 1160 1165 1335 1174 1314 1354 1540 1266 1257 1108 1035 908 924 874 850 884 977 1007 901 919 989 834 951 945 357 167 190 298 757 1205 1252 845 799 853 837 781 739 623 616 806 1119 1373 1216 960 831 750 622 480 424 483 382 238 191 220 198 169
1476 1379 1535 1482 1427 1397 1438 1452 1469 1368 1296 1159 1114 958 911 761 770 708 610 536 634 541 613 705 858 868 1031 1084 1076 1231 1310 1325 1314 1490 1448 1408 1281 1143 1031 984 935 936 923 931 992 1109 1084 998 1175 1121 1127 789 79 17 10 0 0 102 714 746 731 689 700 748 752 627 629 612 782 1446 1406 1280 940 850 746 766 956 814 518 344 301 212 161 216 123
1528 1359 1425 1451 1404 1423 1391 1345 1430 1375 1240 1158 1049 967 675 547 498 284 194 160 119 139 576 633 882 881 1008 954 1034 1253 1288 1287 1436 1492 1476 1274 1209 1234 1146 993 935 994 1016 1009 978 1032 1061 819 754 759 248 183 250 250 237 0 0 0 474 635 498 523 656 640 664 604 737 1042 897 1542 1446 1279 1071 896 706 906 952 757 446 358 342 273 222 222 210
1526 1231 1219 1314 1365 1377 1377 1356 1323 1261 1176 999 929 752 539 408 259 88 24 1 0 1 512 642 776 853 988 1027 1170 1215 1102 1242 1167 1184 1042 983 916 982 1028 948 949 975 1156 890 765 901 518 376 358 64 0 4 3 271 347 234 4 0 1 515 307 415 618 686 620 625 848 860 1076 1624 1476 1330 1127 800 748 923 897 891 616 400 354 302 230 225 233
1420 1225 1147 1229 1272 1268 1276 1248 1248 1145 1027 930 668 542 342 218 74 22 1 0 27 432 518 662 750 856 1057 1097 1129 1117 1113 1177 1064 1019 1011 969 969 1026 967 956 960 991 948 673 601 638 168 448 332 79 31 48 34 409 233 34 13 0 0 0 291 559 657 690 631 622 820 871 1323 1691 1489 1297 1100 786 1062 1007 870 787 664 471 350 274 271 242 228
1300 1229 1242 1250 1213 1105 923 893 801 714 642 572 434 459 175 70 18 1 0 0 467 477 429 634 775 866 961 958 1053 1056 1046 1070 1059 1007 1017 1030 1042 981 952 947 960 923 820 712 608 468 391 321 316 271 313 416 490 777 413 252 221 1 0 0 173 598 646 614 560 784 823 961 1406 1681 1409 1271 1080 798 1018 896 776 654 581 492 375 272 267 257 181
1363 1035 1167 1238 1241 1089 926 847 758 724 626 554 494 404 109 38 58 388 40 9 0 298 528 666 793 805 761 946 1069 1036 1003 1026 867 847 954 1006 977 997 982 940 911 925 723 535 592 567 530 452 381 375 370 872 1116 873 500 241 220 195 0 124 612 731 603 579 724 856 911 1061 1295 1581 1380 1210 1105 976 748 854 659 612 571 440 447 396 348 297 207
1034 1071 1068 1081 1365 1104 949 915 859 739 658 571 523 337 126 124 238 29 0 229 220 560 599 732 766 694 608 906 1088 1110 937 950 747 841 977 1034 1067 1074 1013 952 912 766 709 687 526 492 196 77 514 486 900 1168 986 730 400 226 238 213 46 426 687 791 688 665 875 1063 1184 1269 1322 1634 1445 1284 1134 980 862 678 652 649 493 354 653 606 383 263 201
1040 902 1070 1159 1242 1129 1005 930 837 726 658 578 514 194 164 182 118 15 41 182 0 594 619 562 420 478 574 957 1021 1060 897 872 949 946 907 1004 1028 1023 986 960 886 774 653 449 447 412 123 429 456 517 1031 1036 751 609 308 238 238 222 64 329 691 724 689 686 960 1225 1310 1372 1451 1596 1668 1395 1194 1078 1124 759 704 553 354 294 796 639 391 300 235
1197 996 912 1167 1301 1195 1093 955 1007 824 707 588 502 465 334 140 102 8 159 25 2 455 365 258 398 421 602 996 1084 1017 1051 974 782 818 887 828 940 892 732 600 517 499 435 471 508 479 0 0 426 628 866 904 578 447 331 289 186 152 96 19 396 708 644 584 878 1183 1296 1331 1209 1080 1228 1635 1388 991 955 1042 850 588 449 331 1028 790 512 455 420
1145 1191 1028 1217 1252 1182 1047 1076 1047 893 754 601 546 516 501 416 163 12 37 0 40 34 129 313 516 559 811 980 1024 1101 1006 960 864 809 858 894 1051 948 818 607 631 565 475 470 506 538 432 350 510 662 880 696 522 470 392 145 271 266 191 171 91 329 671 691 705 1021 1139 1171 1014 910 1013 1192 1514 862 1136 1054 974 851 517 224 758 862 868 750 586
1238 983 1020 1089 1262 1264 1092 1128 1070 953 786 678 634 646 704 531 460 464 48 108 143 160 266 390 574 733 955 1057 997 1084 1052 974 930 928 873 929 956 859 721 680 567 528 519 522 582 571 480 462 468 733 745 534 485 411 404 129 307 295 296 236 169 177 298 406 588 756 978 978 959 868 944 1100 1297 1026 1167 1428 1015 892 640 263 197 500 758 1003 755
1113 1086 1097 1038 1031 1120 1181 1052 1078 956 858 803 777 765 759 631 508 472 268 250 422 532 460 556 723 840 987 1121 1145 1087 1039 1056 1006 1031 958 868 908 773 796 734 561 590 611 662 614 520 635 647 634 751 714 381 257 332 305 301 365 290 193 204 142 225 422 469 473 584 733 890 872 898 936 1034 848 803 1279 1582 1149 906 744 610 345 228 350 1033 566
1104 1259 1068 1039 972 1086 1189 1137 1087 1004 1057 1003 935 737 654 565 558 632 544 399 432 526 602 800 884 923 942 1097 1153 1175 1101 1102 1039 973 940 854 799 775 801 670 620 684 702 557 479 555 660 638 579 667 645 363 119 103 15 314 389 366 348 274 238 364 525 588 604 618 613 692 787 832 847 951 832 877 856 895 1225 856 837 801 484 344 305 421 248
951 1086 1163 952 1080 1187 1297 1155 1031 1004 1054 1015 844 702 671 671 726 634 572 458 500 576 744 845 837 815 802 900 935 837 944 949 964 954 918 903 687 676 625 596 664 741 627 593 626 679 680 525 599 743 778 509 194 48 29 430 461 432 396 329 211 239 505 616 640 587 558 674 729 737 932 896 764 764 969 717 677 845 866 987 734 735 465 318 247
768 915 1195 1017 1191 1200 1267 1096 1101 1047 1035 867 798 744 764 755 821 660 443 415 552 647 762 881 936 875 775 715 623 569 663 744 882 876 862 805 714 616 585 506 752 792 761 777 665 534 498 383 604 737 674 660 298 86 2 571 525 523 531 448 347 322 325 555 658 572 408 451 629 723 909 1042 1289 1770 701 671 666 789 978 920 951 738 630 780 560
607 812 924 1068 1169 1091 1070 1090 1141 1126 1106 1013 992 897 841 777 688 457 400 441 544 666 730 836 948 1010 910 744 650 657 737 716 794 995 908 796 576 467 595 502 626 708 872 879 736 561 505 379 532 675 703 696 314 39 276 653 667 564 555 521 542 556 450 342 518 694 661 574 448 594 942 1176 1306 1032 656 644 670 745 625 790 769 676 699 650 393
607 786 1000 1164 1125 1080 1029 1123 1129 1044 1040 1124 1076 950 796 658 489 441 417 392 438 515 587 686 776 954 948 791 632 784 887 793 998 1106 790 516 475 550 614 654 821 852 909 939 732 628 601 651 533 716 806 663 316 160 184 478 605 610 616 603 583 546 490 401 263 485 829 810 795 748 975 1140 1229 1070 798 659 663 679 628 486 466 400 402 1045 1422
720 954 1151 1258 1215 1083 1026 1020 1065 1016 949 910 898 758 613 529 465 461 427 472 572 601 637 645 822 884 779 725 667 878 956 978 998 856 586 455 596 679 647 809 973 1040 897 761 688 720 710 726 784 725 793 681 428 172 401 454 505 502 535 656 548 486 479 426 322 266 487 688 757 884 929 1009 1129 1155 1008 785 666 676 678 589 372 447 406 734 862
784 1104 1278 1285 1230 1142 1135 1214 1158 1005 815 693 656 663 645 531 514 493 486 533 520 558 687 708 706 738 757 743 798 887 965 1047 999 768 680 595 799 774 847 950 891 944 786 863 796 739 647 713 880 765 798 645 506 313 312 410 421 266 451 501 423 458 432 374 294 172 368 460 461 662 1004 920 936 930 1006 893 674 580 598 656 548 377 355 617 606
968 1222 1294 1298 1242 1190 1324 1357 1272 1060 848 712 768 818 728 665 691 639 621 522 521 617 768 771 882 965 922 904 969 968 1013 919 868 818 753 599 858 856 885 916 855 845 742 788 724 787 686 805 856 824 680 624 558 409 358 365 213 41 21 149 183 327 218 326 51 40 268 394 394 455 603 650 791 854 894 769 831 578 415 426 486 500 462 440 525
1111 1282 1287 1302 1244 1277 1386 1403 1337 1194 1039 1045 1076 908 795 717 578 535 457 459 657 783 815 928 914 1022 1020 1053 1108 1107 1149 960 755 667 666 695 883 933 899 869 797 649 712 599 873 746 812 915 850 641 554 590 518 509 434 394 470 288 167 177 163 13 52 0 0 4 6 421 496 494 521 582 606 669 678 678 646 728 626 463 504 477 437 383 457
1082 1260 1253 1289 1285 1307 1364 1380 1352 1342 1342 1298 1188 1058 854 735 580 496 461 570 722 821 850 879 854 858 983 1038 963 942 971 816 694 701 623 642 817 870 803 799 715 475 634 712 716 725 856 788 745 606 594 638 648 590 599 464 520 14 96 25 66 0 9 1 24 72 0 0 189 462 480 630 609 499 465 507 558 645 739 662 486 528 511 394 472
1112 1154 1229 1271 1291 1298 1307 1382 1414 1414 1411 1399 1166 915 868 744 641 568 482 562 672 794 819 797 807 822 842 858 810 730 698 671 662 555 501 624 633 558 572 610 564 471 455 522 589 484 621 499 487 496 462 554 471 510 547 435 478 675 17 0 14 77 17 10 3 52 170 0 160 214 304 526 512 501 482 412 462 540 573 586 449 493 510 443 379
976 1102 1208 1248 1297 1293 1349 1372 1460 1468 1414 1226 1030 938 873 750 701 620 531 607 682 684 659 668 643 572 591 690 609 561 669 666 533 432 512 463 435 158 0 0 0 0 0 0 154 400 548 400 298 422 423 414 455 438 450 452 597 545 130 424 0 243 15 3 0 6 156 20 116 179 315 386 422 464 494 512 454 403 423 436 454 464 434 446 453
948 1111 1162 1201 1334 1333 1341 1335 1251 1202 1187 1323 1185 949 876 809 734 694 586 598 536 508 498 460 400 377 391 409 375 414 464 292 87 106 0 5 0 0 0 0 0 0 0 0 0 0 130 1 0 65 361 350 315 317 324 529 468 475 480 306 191 40 1 0 0 108 125 158 174 178 83 120 328 389 401 364 138 176 261 292 347 380 389 355 314
965 1074 1157 1168 1357 1335 1274 1134 1021 1111 1354 1508 1358 1030 876 773 716 697 590 448 357 326 266 236 266 58 0 328 309 265 0 0 0 0 0 0 0 0 0 0 0 0 0 0 0 0 0 0 0 0 0 0 0 0 287 464 409 347 390 394 118 0 0 0 0 0 0 0 63 16 0 22 258 174 0 34 100 97 36 184 239 232 152 0 0
996 1070 1114 1188 1333 1358 1243 1153 1188 1272 1496 1577 1466 1220 804 647 564 592 441 272 254 223 97 209 47 0 0 0 0 0 0 0 0 0 0 0 0 0 0 0 0 0 0 0 0 0 0 0 69 0 0 0 0 0 85 82 198 305 403 275 0 0 0 0 0 0 0 0 0 0 13 40 0 0 0 0 116 8 0 0 0 0 0 0 0
993 1085 1070 1128 1278 1302 1169 1276 1314 1269 1368 1183 1159 930 756 538 460 428 371 228 191 181 212 189 142 0 0 166 140 0 0 0 0 0 0 0 0 0 0 0 0 0 0 0 0 50 179 144 146 172 197 169 0 0 220 289 0 197 406 310 265 269 115 0 0 0 0 0 0 0 0 10 38 69 125 34 0 0 0 0 0 0 0 0 0
1056 1084 1066 1081 1240 1168 1172 1311 1284 1312 1177 1178 802 575 462 474 449 424 349 200 212 198 117 107 95 0 0 0 0 0 0 0 0 0 0 0 0 0 0 0 0 0 0 0 0 0 0 0 0 0 0 0 0 0 0 0 26 242 324 358 322 267 6 0 0 0 0 0 0 0 0 0 0 39 72 0 0 0 0 0 0 0 0 0 0
Wind_Speed
31 31 27 31 32 34 34 35 35 36 38 39 41 41 41 41 40 39 38 37 35 35 34 35 37 39 38 38 38 38 38 38 37 36 34 32 30 30 30 29 28 27 29 29 29 27 26 26 26 26 26 27 26 25 25 24 24 23 22 22 23 23 23 23 24 24 23 22 22 22 21 22 23 22 nan nan 19 18 16 16 14 12 8 9 15
38 34 29 28 32 33 36 36 35 36 38 40 42 42 41 41 40 39 38 37 35 35 34 35 37 38 38 38 38 38 39 38 38 35 32 31 30 29 29 30 29 30 29 29 28 28 27 27 26 25 24 25 24 23 22 23 22 23 23 22 22 23 21 21 22 23 23 22 22 23 nan nan nan nan nan nan 20 17 17 14 15 8 6 14 16
43 38 30 30 32 31 32 33 34 36 38 41 43 43 42 40 39 38 37 36 35 34 34 35 36 37 38 39 38 38 38 37 37 34 32 30 29 29 29 29 30 30 29 28 27 28 28 27 26 24 24 23 22 22 22 22 22 22 21 21 21 22 22 22 22 23 23 23 22 22 23 22 21 nan nan 22 18 17 17 17 16 13 9 16 15
45 39 33 32 32 30 31 32 35 38 40 42 43 43 41 40 39 37 37 35 35 34 35 35 35 36 37 38 38 37 38 39 39 36 32 30 28 29 30 30 30 29 29 28 27 27 27 26 25 25 23 21 20 20 20 20 20 20 20 21 21 20 21 20 22 22 23 22 19 16 12 nan 16 22 20 18 19 19 19 18 16 16 17 16 18
45 41 36 32 31 32 35 36 38 40 42 43 43 42 40 38 38 36 35 34 35 35 35 35 35 36 36 37 38 37 37 37 36 35 32 30 29 28 29 29 29 29 28 28 27 27 26 26 24 23 21 20 19 19 19 18 19 19 18 19 19 18 17 18 20 20 19 21 20 14 nan nan 12 20 19 nan 18 19 19 18 17 16 16 18 18
45 42 38 35 32 33 38 39 40 43 43 43 42 40 38 37 37 37 35 34 35 35 35 35 35 35 36 37 37 37 36 33 31 31 29 28 26 24 26 27 28 29 29 27 26 26 26 25 23 21 20 19 20 20 18 17 17 17 18 18 16 15 14 10 9 10 16 18 16 nan nan nan nan 15 20 18 17 16 19 19 17 15 15 17 18
47 42 39 36 32 33 38 40 42 42 42 42 40 38 36 36 36 36 35 35 35 35 35 35 36 36 37 37 37 36 35 34 31 30 29 27 25 23 24 26 27 29 28 27 26 25 25 24 22 20 20 20 20 19 16 16 15 16 16 16 15 13 11 9 6 8 11 10 10 nan nan nan nan 12 20 17 16 16 18 18 17 14 15 16 16
44 41 39 36 33 36 40 41 42 41 40 40 38 37 35 36 36 35 36 35 35 34 35 36 36 37 37 37 36 35 35 34 32 30 28 27 26 23 21 23 24 27 28 27 26 25 25 23 21 21 20 20 19 18 16 15 14 15 15 15 14 13 10 7 6 5 11 10 10 11 12 13 12 13 20 18 17 16 17 18 16 15 15 15 16
42 39 36 35 33 40 40 40 40 38 39 38 37 35 34 35 36 36 35 36 35 34 35 36 38 38 37 37 36 35 34 35 33 31 29 29 27 23 19 20 24 25 26 25 26 24 25 23 22 21 20 20 19 17 15 14 14 14 14 14 13 12 9 7 5 8 9 8 10 11 12 12 12 14 19 20 18 19 20 17 16 15 15 16 16
37 35 33 32 32 38 38 38 37 37 37 36 35 35 35 35 36 36 35 35 34 34 34 35 37 38 38 38 37 36 35 34 34 33 32 31 28 26 24 23 24 26 27 26 26 26 25 23 22 21 20 19 18 16 14 12 12 13 13 13 12 12 12 13 15 16 10 9 11 12 12 15 15 15 18 20 19 18 18 15 14 14 13 14 16
32 31 30 31 32 36 36 37 36 37 35 35 35 35 36 36 37 37 36 36 34 33 33 35 37 38 39 38 38 37 37 36 36 35 34 33 29 27 25 22 23 24 26 26 26 26 26 24 23 21 21 19 17 15 12 12 10 12 12 12 12 13 14 15 15 11 10 11 11 11 15 20 nan 15 20 21 21 20 19 18 17 17 16 15 16
30 28 28 29 34 36 36 36 36 35 35 35 35 36 36 36 37 36 36 35 34 33 34 35 36 38 39 39 38 37 38 38 37 37 36 33 30 29 27 23 22 23 24 26 26 28 27 26 24 22 20 18 16 14 12 11 10 10 11 11 13 14 15 16 14 12 10 12 13 11 12 nan nan nan 22 20 19 nan 19 nan nan nan nan 16 17
30 29 29 30 31 35 36 35 35 34 35 35 35 37 36 36 37 37 35 33 32 33 35 36 37 37 37 38 36 36 37 37 37 37 35 31 30 30 27 24 24 25 26 27 28 29 28 27 25 22 19 17 14 12 11 10 8 9 11 12 14 15 15 17 13 14 12 12 13 12 13 nan 13 20 20 21 20 20 20 20 18 18 nan nan 19
30 29 30 31 31 36 35 34 33 34 34 34 35 35 37 37 38 37 34 33 33 33 33 35 35 35 35 35 33 32 33 35 36 36 34 31 30 31 30 28 27 27 27 27 29 29 28 27 25 21 18 16 13 12 10 8 8 9 11 13 13 14 16 17 16 15 13 12 13 13 12 12 13 19 19 19 19 19 20 19 19 19 18 18 nan
30 30 30 30 30 30 36 34 34 35 34 35 36 37 37 38 37 35 34 34 34 33 34 34 33 35 34 32 30 30 31 32 34 33 33 31 29 31 31 30 29 29 28 27 29 28 27 26 24 20 18 15 13 11 9 7 7 9 11 13 13 13 17 15 16 15 14 12 12 13 13 11 15 16 19 19 19 19 19 20 19 19 20 20 nan
30 30 30 29 29 29 29 34 35 35 36 37 37 38 38 38 37 34 34 34 35 36 37 37 35 33 31 30 29 28 30 31 32 31 30 30 28 30 32 30 31 30 28 27 27 27 26 25 22 19 18 16 12 10 9 8 7 10 11 12 12 13 17 17 17 15 13 11 12 13 13 13 18 16 18 19 19 17 18 18 20 20 20 21 nan
29 29 30 30 30 29 30 31 33 38 37 37 38 39 39 39 36 35 34 35 36 36 37 36 36 33 31 31 29 28 29 29 31 30 28 28 28 29 30 31 31 30 28 28 28 26 25 24 21 19 17 16 13 10 9 9 9 10 10 12 12 11 15 18 18 15 12 11 12 13 13 13 16 16 17 17 17 17 18 18 19 nan 20 nan nan
28 28 30 30 31 31 31 30 32 33 34 37 40 42 41 41 38 35 35 36 37 35 35 36 36 32 28 29 27 26 28 29 31 30 28 26 27 27 31 32 30 30 30 29 27 24 22 22 19 18 17 15 13 11 10 10 10 10 10 13 13 11 13 19 18 15 11 12 12 13 14 16 19 17 17 16 17 18 17 18 18 18 20 21 22
27 29 30 32 33 32 31 31 32 33 34 33 34 39 44 40 37 36 36 36 36 36 36 36 35 30 26 28 28 26 27 29 30 31 28 25 26 27 30 31 30 30 29 29 27 22 22 20 18 17 16 16 15 13 11 11 11 10 12 14 15 12 16 19 17 16 13 12 12 14 15 20 18 17 17 16 16 18 nan nan 16 18 20 21 22
28 30 32 32 32 32 31 32 33 33 33 34 36 37 40 39 35 34 35 35 36 37 36 35 32 28 26 24 27 25 26 24 29 26 29 26 23 23 28 30 29 29 30 30 26 22 21 19 17 16 15 16 16 14 13 11 11 11 12 15 16 13 15 16 15 17 16 13 12 13 18 20 19 18 18 17 17 17 17 17 17 18 18 19 21
28 30 32 32 32 32 33 33 33 35 36 36 36 35 35 36 34 33 34 33 34 36 35 34 29 26 24 25 26 26 24 24 22 21 26 22 22 23 26 29 28 28 29 30 26 22 20 17 16 15 15 15 16 15 13 12 11 12 13 17 16 13 17 17 15 16 17 14 12 14 19 21 21 19 18 17 18 18 17 16 16 16 18 19 19
29 31 32 33 32 32 34 34 34 36 36 34 33 32 31 31 29 28 28 30 31 31 29 25 25 21 24 22 21 23 23 24 24 23 21 24 24 25 26 26 26 26 29 30 24 19 17 15 15 15 17 19 19 18 15 14 13 13 14 19 15 14 18 17 15 16 17 16 14 15 20 21 21 19 18 18 18 18 18 17 17 18 19 18 19
31 31 32 32 32 34 34 34 35 36 36 35 32 30 29 26 26 26 26 27 26 25 25 26 23 22 21 18 17 19 20 22 22 22 22 28 27 27 27 26 25 25 30 26 19 17 16 17 19 20 23 20 nan nan nan nan nan 16 18 19 14 14 18 17 16 16 17 16 16 19 20 22 22 20 18 18 19 19 18 17 17 18 18 18 18
32 32 33 32 33 35 36 36 36 35 34 32 30 27 25 24 24 24 24 24 23 25 26 27 24 22 22 20 20 19 18 18 20 23 22 25 28 28 27 26 25 26 25 20 16 17 22 23 23 23 20 18 18 17 17 nan nan nan 18 18 15 13 19 18 17 17 17 16 17 21 21 22 21 20 20 20 20 20 19 19 18 18 18 18 19
34 35 34 34 35 37 38 37 35 32 32 30 28 24 24 25 25 nan nan nan nan nan 26 26 23 22 22 21 18 17 17 17 17 16 15 19 22 26 28 27 24 21 20 18 18 19 20 19 19 nan nan nan nan 18 18 17 nan nan nan 20 16 12 18 19 19 18 17 17 18 22 23 21 20 21 22 21 21 21 21 19 18 18 17 18 19
36 37 36 37 37 39 38 35 30 28 29 27 24 24 25 25 nan nan nan nan nan 24 24 23 22 20 21 20 17 17 18 18 17 16 15 14 14 19 26 25 20 17 17 17 16 17 18 19 19 nan nan nan nan 18 19 nan nan nan nan nan 19 17 18 18 19 18 18 19 19 23 22 21 20 20 24 23 22 21 21 19 19 17 17 17 18
35 36 34 38 39 39 35 29 27 26 26 24 22 22 22 nan nan nan nan nan 23 24 24 22 20 20 19 20 22 22 21 19 17 15 13 12 11 14 21 20 16 15 14 14 16 16 17 17 16 15 16 19 19 20 21 22 22 nan nan nan 22 22 18 17 18 18 18 19 20 24 23 23 21 20 24 23 22 21 20 20 19 18 17 17 17
35 33 34 34 35 34 30 26 25 25 23 22 22 22 22 nan nan 21 nan nan nan 23 23 22 20 19 18 20 22 23 22 21 16 12 12 11 10 13 17 18 16 14 13 15 16 15 15 15 14 13 15 17 20 21 22 22 23 24 nan 22 23 23 21 19 19 18 19 19 20 23 24 24 21 19 22 23 21 20 20 20 20 18 18 17 17
32 30 33 26 22 22 23 23 23 24 23 23 24 23 22 20 19 nan nan 24 23 23 24 22 20 17 17 18 19 21 20 17 12 12 12 11 11 12 14 14 14 13 14 15 14 14 14 nan 14 14 16 19 21 23 22 23 23 24 nan 22 22 24 23 21 20 20 20 20 19 19 23 24 22 20 23 22 21 20 19 19 20 20 19 18 18
33 33 28 23 19 18 20 20 21 23 24 24 23 22 20 19 18 nan nan 23 nan 22 21 19 17 16 15 13 14 15 13 12 12 11 10 10 9 10 11 12 13 12 14 14 13 13 11 11 13 17 19 21 22 21 22 23 24 23 nan 21 21 23 24 23 21 20 19 20 19 19 21 22 21 19 19 21 22 21 20 19 20 22 20 19 19
35 32 29 26 20 18 19 20 19 19 18 19 19 21 20 19 19 nan 22 nan nan 19 16 16 15 14 11 8 8 9 7 5 6 6 9 9 6 8 9 11 13 13 13 12 10 11 nan nan 14 17 19 21 21 20 20 22 22 22 nan nan 20 22 24 23 21 19 18 18 18 19 20 20 18 16 16 19 22 22 21 19 21 20 20 20 20
29 30 30 29 26 23 24 24 22 20 20 21 21 21 20 18 20 nan nan nan nan nan 16 15 13 8 5 4 5 6 4 2 3 4 5 6 6 7 8 9 9 9 9 9 9 10 11 13 15 17 18 20 20 20 19 21 21 21 19 19 nan 20 21 20 20 17 16 17 17 17 15 15 17 15 17 18 21 21 20 19 19 17 18 20 22
21 28 30 30 30 27 28 25 23 21 23 24 22 19 18 18 19 22 nan 22 19 16 16 14 10 5 4 5 4 4 4 4 3 5 5 6 6 7 6 6 6 6 7 8 9 12 14 14 15 16 18 19 19 19 19 20 21 19 17 16 17 18 19 19 16 14 13 14 13 14 15 15 15 17 19 19 20 19 19 18 17 17 17 19 21
25 27 26 25 25 23 24 25 23 22 23 22 21 20 19 19 18 20 20 19 16 13 13 13 11 9 8 6 5 4 5 4 4 4 5 5 5 5 5 5 5 7 9 10 12 13 15 14 14 16 17 18 18 17 19 18 17 16 15 14 14 15 14 13 11 10 11 11 12 13 13 11 14 18 17 19 18 18 18 18 18 17 19 20 19
29 26 24 22 26 27 28 27 23 22 22 21 21 19 19 19 18 17 17 17 15 14 13 13 13 12 11 9 6 4 3 2 2 3 2 2 3 4 5 5 7 8 10 11 12 13 15 13 13 16 16 16 16 16 nan 14 13 14 11 11 12 10 9 8 8 9 10 12 11 10 8 11 14 16 16 16 16 17 17 18 19 19 19 20 19
34 30 28 26 28 28 26 23 19 20 19 19 18 17 18 19 19 19 19 18 16 16 15 15 14 11 9 7 4 3 3 3 2 3 4 4 6 7 7 8 9 10 10 11 12 13 13 13 13 14 15 14 16 nan nan 12 11 10 7 9 10 9 8 7 8 9 11 11 8 7 6 8 11 13 14 12 12 13 15 15 16 17 19 20 21
36 35 31 28 27 26 23 20 20 22 20 18 17 17 17 19 19 19 18 18 16 15 15 13 11 7 5 5 5 4 5 3 3 5 7 7 8 9 8 9 10 10 9 9 10 11 12 12 11 11 11 12 13 nan nan 10 10 8 6 7 9 10 9 10 10 8 8 8 7 7 6 6 7 11 11 11 10 11 13 14 13 15 17 19 21
34 32 30 31 30 29 26 24 23 22 20 19 18 18 18 17 17 17 16 15 13 12 11 9 9 8 8 7 6 5 5 4 5 7 8 8 7 8 8 8 9 9 8 8 8 10 11 12 12 10 10 11 12 nan 12 9 8 8 8 8 9 10 10 10 9 7 5 5 6 7 6 6 8 8 9 9 9 11 12 13 15 15 16 19 23
32 31 32 31 31 30 28 26 24 21 19 18 17 17 17 16 15 16 16 14 11 10 10 10 9 10 9 8 7 7 7 7 7 8 8 7 7 6 7 6 7 7 7 8 10 10 11 11 12 11 10 11 12 11 10 9 8 9 11 10 10 11 10 8 6 6 6 5 5 6 7 7 9 9 8 8 9 10 9 9 10 10 10 15 18
30 30 31 32 32 31 27 25 21 19 17 16 17 17 16 15 15 14 13 12 10 11 10 10 10 9 8 8 8 8 8 8 7 6 6 6 5 5 6 7 7 8 8 9 9 10 11 13 12 12 12 13 12 12 11 11 10 11 11 9 10 11 11 9 9 9 8 9 9 8 7 8 9 10 11 10 10 9 7 7 8 8 8 9 13
30 29 30 31 31 31 29 27 22 19 18 16 16 16 16 15 14 13 12 10 9 10 10 10 11 10 7 7 7 8 8 7 5 5 5 4 4 5 7 7 7 8 8 8 8 8 9 10 11 10 11 12 12 11 11 12 12 11 12 9 12 13 12 10 10 10 10 9 9 9 8 9 10 11 10 10 9 9 8 6 5 6 7 6 9
29 29 30 29 28 29 28 25 22 20 18 17 16 15 14 14 16 15 13 12 11 12 11 11 11 10 7 7 7 6 6 5 4 3 4 5 5 6 6 6 7 7 7 7 7 8 10 11 10 12 10 12 11 10 10 13 10 nan nan 10 13 13 11 11 nan nan 9 9 7 7 8 9 10 10 10 9 8 10 9 7 6 6 7 6 7
29 29 29 29 26 25 23 21 20 19 16 16 16 15 14 14 16 16 15 12 10 11 11 11 10 9 8 7 6 5 6 4 4 4 5 5 6 7 6 6 6 7 8 7 8 9 9 9 10 11 13 12 13 10 11 10 11 10 12 13 11 nan nan nan nan nan nan 9 8 9 10 9 9 8 9 10 10 10 9 8 8 9 7 8 11
27 26 27 26 25 24 23 20 20 17 15 13 14 14 15 16 18 18 16 13 10 9 10 10 9 9 6 6 6 6 5 4 4 4 5 6 6 7 7 7 7 8 9 9 9 9 9 9 11 12 12 14 12 11 11 11 12 nan nan nan nan nan nan nan nan nan nan nan 10 10 11 11 10 11 11 13 13 11 10 10 10 10 11 13 11
27 26 26 26 24 25 23 19 18 15 12 12 13 14 16 17 19 19 17 16 13 10 9 8 7 7 7 6 5 5 5 5 4 5 6 7 7 8 8 7 9 9 10 11 10 8 8 9 11 12 10 12 11 11 12 12 12 10 nan nan nan nan nan nan nan nan 10 nan 11 12 12 11 10 11 12 12 13 13 11 12 12 12 12 13 13
27 25 25 26 25 23 19 15 13 11 11 11 12 14 14 16 16 14 13 12 12 11 9 7 7 8 6 5 4 3 4 5 5 6 7 8 9 9 nan nan nan nan nan nan 13 12 11 11 9 10 11 10 13 13 12 11 13 13 10 9 nan 11 nan nan nan nan 10 nan 11 11 11 10 10 12 12 13 14 15 15 15 13 13 14 15 14
25 22 22 22 21 20 15 12 11 9 9 9 10 12 11 10 11 10 9 11 12 9 8 7 9 10 10 7 3 2 4 6 nan 7 nan nan nan nan nan nan nan nan nan nan nan nan 14 nan nan nan 11 12 13 13 13 11 13 13 12 11 11 nan nan nan nan 13 14 10 12 10 nan 9 11 13 14 15 16 17 16 16 15 14 14 15 15
23 21 20 20 20 18 13 9 8 9 9 8 7 8 5 5 8 8 9 11 11 11 9 9 10 nan nan 9 7 5 nan nan nan nan nan nan nan nan nan nan nan nan nan nan nan nan nan nan nan nan nan nan nan nan 11 12 13 10 11 14 15 nan nan nan nan nan nan nan nan nan nan nan 13 13 nan nan nan nan nan 15 15 15 15 nan nan
22 21 21 20 19 16 11 7 6 8 9 5 5 8 7 8 10 10 11 11 12 11 nan 10 nan nan nan nan nan nan nan nan nan nan nan nan nan nan nan nan nan nan nan nan nan nan nan nan nan nan nan nan nan nan nan nan 13 13 15 14 nan nan nan nan nan nan nan nan nan nan nan nan nan nan nan nan 14 nan nan nan nan nan nan nan nan
21 20 20 19 17 13 10 8 6 8 7 2 3 8 9 10 10 8 10 11 12 11 10 9 9 nan nan 15 16 nan nan nan nan nan nan nan nan nan nan nan nan nan nan nan nan nan 18 18 16 15 14 15 nan nan 14 14 nan 14 13 15 15 14 15 nan nan nan nan nan nan nan nan nan nan nan 12 nan nan nan nan nan nan nan nan nan nan
19 19 18 16 14 10 7 6 6 13 9 4 6 5 6 7 7 6 8 9 10 10 10 9 nan nan nan nan nan nan nan nan nan nan nan nan nan nan nan nan nan nan nan nan nan nan nan nan nan nan nan nan nan nan nan nan nan 17 15 15 15 14 nan nan nan nan nan nan nan nan nan nan nan nan nan nan nan nan nan nan nan nan nan nan nan
Wind_Direction
293 298 299 305 303 299 297 298 298 295 294 294 294 295 297 299 299 298 297 297 298 299 300 300 300 300 301 303 306 307 308 308 309 308 307 304 301 299 300 302 303 302 302 302 299 298 296 295 294 293 291 287 284 283 282 281 283 281 282 283 282 280 279 273 270 267 261 253 251 247 244 243 246 247 nan nan 241 230 224 215 210 196 188 225 250
297 299 301 305 303 299 296 296 297 295 294 295 296 297 299 300 299 297 297 298 300 301 300 299 299 300 302 304 305 306 307 308 308 308 306 303 302 302 304 304 303 302 302 301 302 301 299 296 293 293 291 288 287 287 286 286 285 284 282 282 281 282 278 273 273 271 265 258 253 253 nan nan nan nan nan nan 233 233 229 218 220 211 185 231 241
293 297 299 303 303 301 298 296 296 295 295 296 299 300 301 300 298 297 298 300 301 301 300 299 299 300 302 303 304 305 307 307 307 307 306 304 304 304 303 302 302 301 299 303 305 301 299 298 297 294 290 289 291 290 287 285 285 285 285 287 288 284 281 278 275 271 266 259 254 251 249 244 248 nan nan 238 234 232 229 226 226 218 216 235 233
293 295 295 298 297 299 299 297 296 296 296 298 300 301 301 299 297 297 299 301 301 300 299 299 299 300 301 302 303 304 306 306 306 305 306 305 305 304 302 302 300 299 300 303 304 302 301 299 297 295 294 292 289 287 286 287 286 286 287 288 290 289 287 287 284 276 269 264 258 249 238 nan 237 241 238 233 239 232 230 226 227 232 233 237 241
291 292 291 289 288 293 295 294 296 296 297 298 300 301 299 298 297 298 300 300 299 299 299 299 300 300 300 301 302 303 304 304 304 305 306 304 303 302 301 300 300 301 302 304 304 302 301 301 299 297 295 291 288 288 289 289 289 289 289 289 290 290 294 296 295 275 260 267 262 255 nan nan 227 250 247 nan 244 237 229 224 222 223 233 242 246
289 289 287 285 285 289 293 293 294 296 297 299 300 299 297 297 298 298 299 299 299 300 300 301 300 300 300 300 300 302 303 301 301 303 302 301 301 298 297 299 301 302 303 304 303 300 298 299 298 296 294 292 289 287 287 287 285 286 288 288 285 288 289 284 301 246 253 262 264 nan nan nan nan 238 251 241 232 226 230 223 218 217 229 234 240
286 285 284 284 283 288 292 292 293 295 297 298 298 297 296 297 298 298 298 299 300 300 301 300 299 298 298 299 300 301 300 298 293 293 293 293 293 294 297 299 301 301 302 302 299 297 296 297 296 293 291 288 286 283 281 282 281 281 280 278 276 270 268 264 259 265 258 263 262 nan nan nan nan 232 249 242 239 230 227 226 219 218 222 226 233
278 279 281 281 281 289 292 292 293 294 296 298 297 295 295 296 297 296 296 298 298 299 299 298 297 296 296 297 298 299 298 296 293 290 287 287 286 290 295 299 298 297 299 300 296 293 293 293 292 290 287 284 280 274 273 274 272 270 268 263 260 258 259 258 273 274 277 265 262 255 253 248 237 229 247 247 243 234 225 230 223 217 223 226 229
274 276 278 279 282 291 291 291 292 293 294 295 294 293 292 293 294 294 294 296 296 295 296 295 294 293 293 294 294 295 294 293 289 282 280 282 286 290 290 282 282 287 289 293 293 292 290 290 287 285 283 281 278 271 267 265 265 262 258 256 253 251 245 229 210 294 281 268 260 253 250 247 241 240 243 238 238 231 228 217 216 223 225 223 226
271 274 276 277 281 289 290 290 290 290 291 292 291 291 291 292 293 293 294 294 294 293 293 292 291 291 290 290 291 292 288 286 283 278 273 272 278 281 280 280 284 287 289 290 291 290 288 288 287 284 283 281 275 269 264 261 255 252 249 245 246 245 235 229 251 280 274 267 260 251 247 252 248 247 254 251 242 234 225 236 231 229 223 229 235
273 274 274 277 283 287 287 287 288 289 289 290 290 289 290 291 292 293 293 293 292 291 290 290 289 288 288 287 288 287 285 282 279 275 273 273 274 276 278 280 282 284 286 288 290 290 289 288 284 284 285 283 277 267 260 257 247 244 241 237 237 237 237 246 264 273 273 271 260 251 257 254 nan 246 255 250 244 239 232 234 240 235 237 236 234
273 274 273 275 285 285 286 287 288 289 289 289 289 288 289 291 292 291 291 292 292 291 290 288 287 288 288 287 288 288 285 282 277 273 271 273 273 273 277 280 280 280 280 284 285 286 288 286 285 285 284 278 270 262 254 248 243 240 238 236 237 236 238 255 276 278 275 269 262 253 251 nan nan nan 258 256 251 nan 243 nan nan nan nan 235 238
273 273 274 276 277 284 284 285 287 289 289 287 286 287 288 290 289 288 288 289 290 291 289 288 287 287 287 288 289 289 284 280 275 273 272 273 274 273 274 276 275 274 275 278 283 287 286 286 286 285 280 274 270 265 258 249 244 242 237 235 236 238 241 270 282 279 271 265 261 254 252 nan 243 261 257 250 248 246 242 239 238 239 nan nan 240
272 272 273 275 277 283 282 284 285 286 285 284 284 286 288 286 287 286 287 289 288 287 285 284 283 284 285 287 288 285 281 277 274 274 273 273 274 274 271 271 273 275 276 278 282 282 283 286 286 284 280 279 280 276 268 259 249 246 245 244 241 241 252 278 282 275 267 262 260 257 251 249 248 256 259 261 257 252 248 246 242 242 245 244 nan
273 273 274 275 277 279 284 283 283 283 281 281 283 284 284 285 286 287 287 287 286 283 283 281 281 283 285 286 287 285 280 275 273 273 272 272 271 271 270 270 273 274 275 277 278 280 283 285 286 285 283 284 280 282 274 268 256 250 250 251 249 253 263 279 280 272 267 263 261 262 257 253 271 272 266 256 250 249 247 245 245 244 242 243 nan
272 274 274 273 275 278 278 282 280 279 279 280 281 282 283 286 287 286 285 285 282 277 276 277 278 279 283 287 288 286 281 273 273 272 269 268 266 266 265 270 272 272 275 276 277 279 284 285 285 285 286 287 283 277 272 268 260 253 255 260 261 266 270 276 278 270 264 261 263 262 261 259 271 263 260 263 262 259 254 250 247 245 244 243 nan
271 271 272 273 273 272 273 273 277 280 279 279 279 281 282 284 284 282 280 278 278 278 280 280 276 273 284 292 290 285 280 275 277 274 266 263 260 260 261 264 269 270 276 277 274 278 285 284 281 282 284 285 282 274 268 265 258 256 260 263 262 265 278 287 280 272 267 268 267 264 261 259 274 275 273 270 265 255 253 253 251 nan 246 nan nan
268 270 271 272 271 270 270 272 273 273 275 277 280 281 280 281 282 281 279 278 277 276 278 275 272 275 280 289 288 284 282 280 279 270 261 257 250 251 254 259 263 267 274 274 274 278 282 281 274 277 282 283 280 272 268 262 261 261 260 261 259 261 268 282 279 276 273 272 265 262 261 274 282 281 282 278 276 274 268 263 258 252 247 245 246
264 266 269 271 270 270 268 268 269 271 272 271 274 276 277 280 283 283 281 280 281 279 276 275 275 278 278 286 288 285 285 284 282 271 256 251 249 245 249 254 260 265 270 271 273 277 279 277 270 272 280 280 278 274 268 263 268 267 264 264 265 272 271 278 278 283 275 266 263 262 264 280 282 283 279 274 269 266 nan nan 261 256 250 248 247
259 264 267 268 269 269 267 267 268 271 271 273 274 275 279 285 285 281 284 283 281 280 280 280 279 279 275 270 279 276 279 282 286 270 256 250 247 244 250 252 258 263 267 270 273 275 277 274 267 270 276 277 279 278 280 278 278 275 271 271 274 278 275 278 280 280 279 275 260 259 274 280 277 275 276 277 277 273 266 262 261 263 263 259 253
255 260 265 268 270 270 269 268 270 272 272 273 273 275 281 287 287 284 284 283 281 282 284 286 285 284 275 273 272 275 277 275 275 267 259 252 258 257 253 251 256 265 269 270 270 271 273 271 266 268 273 274 276 274 276 278 278 278 276 275 280 276 281 279 276 277 277 274 264 258 276 273 274 274 275 278 280 276 271 266 263 263 259 258 259
260 261 264 269 271 271 271 270 270 272 273 272 273 277 282 286 283 282 279 281 283 285 286 287 289 280 280 275 276 277 279 274 274 274 260 260 264 259 249 251 259 266 267 265 267 272 275 269 262 260 255 249 249 259 261 260 264 271 274 277 281 282 285 287 285 279 274 274 267 267 274 273 273 270 273 277 275 274 272 267 260 258 259 262 263
262 262 264 270 271 271 270 271 271 272 271 272 274 277 281 282 283 282 282 286 288 286 283 284 279 276 276 272 275 276 276 274 273 274 268 265 263 259 248 252 258 262 264 263 265 265 257 244 238 241 242 244 nan nan nan nan nan 260 264 271 281 286 286 284 279 274 270 267 266 277 271 269 271 270 269 270 274 274 271 270 267 263 261 261 259
265 265 268 268 270 270 270 271 271 272 273 274 277 280 283 283 282 282 283 284 282 279 280 282 281 275 273 270 271 270 267 270 280 287 278 261 260 256 250 251 254 257 262 259 259 257 240 233 237 245 250 253 254 253 253 nan nan nan 267 269 274 288 287 283 275 270 268 265 264 277 270 268 270 270 265 265 265 267 266 266 267 267 267 265 265
266 267 269 271 270 270 271 272 275 278 279 281 285 286 284 281 280 nan nan nan nan nan 279 280 281 277 273 271 268 268 270 268 267 267 264 257 256 254 244 238 240 246 256 246 243 241 238 242 247 nan nan nan nan 249 250 252 nan nan nan 277 285 280 276 275 270 269 269 262 263 275 273 269 267 270 265 261 259 260 262 261 264 268 270 268 267
267 271 274 271 269 270 272 277 282 283 282 288 293 292 289 285 nan nan nan nan nan 280 280 282 278 275 273 269 263 266 270 274 276 269 257 247 242 247 247 240 238 243 243 244 239 238 243 249 251 nan nan nan nan 249 251 nan nan nan nan nan 289 275 275 273 271 270 268 267 267 277 273 270 267 269 268 266 261 258 258 259 262 266 268 269 268
270 271 271 269 267 270 278 287 289 288 291 296 294 292 290 nan nan nan nan nan 282 283 283 283 281 278 271 266 267 269 269 269 269 262 257 246 229 234 243 237 235 237 236 241 235 237 244 250 252 251 251 250 250 251 251 253 258 nan nan nan 270 266 258 265 272 270 269 270 270 278 273 269 266 262 270 267 263 260 257 259 259 261 265 267 269
273 287 272 256 265 273 284 293 291 296 298 297 297 294 292 nan nan 290 nan nan nan 290 287 287 284 282 278 273 269 266 263 253 247 252 257 249 224 213 227 231 235 236 228 234 242 242 244 248 251 250 251 250 250 254 255 251 251 257 nan 263 267 266 266 261 254 253 255 258 266 278 279 277 274 270 267 267 267 264 263 261 264 263 264 265 267
274 272 266 263 272 283 285 291 292 298 296 297 298 293 292 292 293 nan nan 299 296 295 294 291 289 284 279 275 271 264 260 267 267 246 244 241 219 209 218 228 234 237 236 236 244 248 243 nan 248 251 252 250 251 254 256 253 250 253 nan 263 264 267 267 262 261 259 255 251 254 271 281 280 277 273 276 274 271 268 263 262 266 268 266 267 269
259 273 270 256 275 278 281 288 291 298 296 293 294 294 297 300 300 nan nan 299 nan 296 295 290 284 282 277 275 275 270 276 255 235 229 233 220 201 213 223 232 241 246 245 244 240 244 248 248 249 250 251 253 255 256 257 253 249 250 nan 264 261 265 269 267 263 259 256 256 257 257 269 264 259 262 268 273 272 268 262 260 270 268 268 270 271
265 276 281 287 286 278 280 277 281 294 300 299 299 303 307 306 303 nan 296 nan nan 297 291 283 280 280 280 278 276 274 268 249 225 224 195 203 206 235 240 242 244 244 245 245 238 247 nan nan 254 253 253 257 259 258 256 253 248 249 nan nan 260 263 270 272 268 264 261 260 255 251 251 257 268 253 245 257 265 266 264 263 271 271 272 274 274
280 280 269 273 289 295 295 293 294 296 298 303 309 313 313 307 299 nan nan nan nan nan 288 282 283 283 276 259 258 260 264 237 226 227 225 219 231 236 239 243 243 237 244 249 250 252 257 258 258 259 259 264 263 258 253 255 252 252 255 257 nan 261 265 272 276 272 268 262 259 258 262 266 273 270 254 253 268 269 271 270 277 275 277 277 273
278 281 285 286 294 300 297 299 302 302 301 304 307 309 305 300 299 291 nan 292 291 286 281 283 288 282 247 235 232 248 261 282 268 261 247 233 226 224 220 221 226 230 239 254 259 260 260 258 255 257 262 265 266 261 257 257 259 257 259 257 258 262 265 271 272 269 271 267 262 257 254 245 250 263 259 262 275 277 279 276 271 278 278 273 269
298 285 285 292 305 318 312 312 308 305 308 303 301 302 299 299 292 288 291 289 285 277 276 285 289 280 277 280 280 268 264 267 273 257 250 235 226 220 213 218 226 233 243 256 263 264 264 260 260 260 262 264 266 266 266 263 262 261 259 258 255 261 264 261 258 262 271 268 260 264 256 242 249 248 256 267 279 277 277 279 275 266 265 268 264
285 293 297 293 300 311 317 321 315 303 305 305 309 307 301 301 293 289 290 293 285 269 274 289 289 284 287 293 286 261 238 225 233 271 252 254 263 260 264 273 266 254 260 259 263 258 260 261 257 261 261 259 259 261 nan 266 266 265 265 259 251 243 241 236 224 243 254 251 266 284 256 231 246 254 257 259 270 278 275 275 272 271 270 272 263
285 297 304 304 305 307 312 320 332 327 318 309 310 312 313 310 301 295 290 294 286 270 272 283 284 282 289 287 263 218 191 169 204 265 286 288 288 285 283 278 271 270 267 261 255 256 255 252 248 264 268 267 265 nan nan 261 254 261 262 251 238 231 224 213 214 233 246 252 263 278 249 225 239 254 259 259 261 267 272 276 279 274 274 270 263
282 291 306 305 296 297 301 313 330 336 330 318 310 306 310 314 311 301 295 292 286 274 271 271 273 282 278 257 227 199 189 197 247 271 290 294 289 290 285 276 269 270 263 254 247 250 253 253 245 250 267 273 267 nan nan 254 250 247 251 241 226 224 216 203 199 213 241 255 251 250 240 231 248 267 263 266 264 261 274 279 283 270 252 249 256
288 293 301 303 305 305 301 300 309 322 327 325 316 307 307 305 302 295 288 286 279 268 261 260 269 274 266 250 230 218 223 246 278 288 292 292 290 286 274 268 261 257 252 242 239 243 249 254 255 242 254 265 263 nan 259 252 247 246 249 244 229 222 211 202 189 196 199 219 229 245 237 229 243 257 266 266 264 259 256 254 250 250 250 242 238
291 299 301 304 307 305 300 303 313 320 319 318 311 302 295 287 285 285 274 263 259 253 256 265 275 271 263 257 248 244 262 290 298 294 294 288 271 254 253 247 246 251 252 245 245 244 246 243 253 245 242 253 266 260 262 256 243 240 244 236 236 231 220 204 196 192 187 193 230 247 229 232 246 247 259 267 263 257 256 252 254 262 256 232 243
295 303 302 304 308 308 302 301 310 317 310 304 297 295 294 291 291 282 267 251 246 256 263 268 262 264 265 259 250 259 272 290 294 290 281 267 251 238 238 234 237 248 249 248 248 250 250 246 249 252 250 247 251 265 265 260 242 237 240 232 233 241 233 208 200 204 200 202 210 217 222 222 233 239 239 245 248 246 249 253 246 246 258 230 228
296 299 301 304 308 310 308 306 306 310 311 306 300 300 299 285 272 278 272 260 262 257 264 257 252 259 273 269 265 275 279 285 288 279 274 270 251 247 246 245 250 253 253 254 251 249 250 254 257 254 257 252 247 256 260 261 261 241 234 226 229 239 240 231 221 216 219 209 204 209 214 221 232 235 242 242 248 252 252 255 251 245 238 234 224
297 299 302 301 303 306 307 302 302 305 308 310 304 298 294 285 274 271 260 262 269 275 269 256 252 247 256 266 274 279 281 289 296 296 289 287 271 267 264 269 270 268 263 258 245 251 248 247 255 246 242 259 254 266 270 256 236 nan nan 242 234 241 248 243 nan nan 227 226 225 232 225 244 244 244 247 244 251 256 257 262 249 245 224 202 224
304 303 298 296 300 305 304 304 305 305 304 304 299 295 285 276 269 264 262 254 256 272 273 261 250 246 251 269 281 283 291 300 316 312 303 296 291 289 289 281 281 279 273 267 254 258 263 263 257 259 250 242 253 254 261 260 269 255 250 256 254 nan nan nan nan nan nan 235 246 251 259 263 256 244 256 264 259 257 259 252 247 242 245 230 246
300 297 299 299 298 300 301 304 306 301 298 296 292 283 280 268 262 260 249 244 273 282 272 261 246 245 262 270 271 277 283 293 299 299 289 293 297 294 278 279 284 279 284 279 265 260 259 252 249 249 255 255 247 242 246 252 263 nan nan nan nan nan nan nan nan nan nan nan 236 250 260 261 253 251 258 269 272 265 256 252 250 256 251 250 256
296 299 303 301 294 297 300 302 305 305 296 286 284 279 265 253 255 250 239 242 251 264 271 260 253 250 250 258 269 268 283 298 307 309 306 303 294 287 290 294 280 274 270 267 264 263 253 250 253 254 252 262 255 250 239 248 260 250 nan nan nan nan nan nan nan nan 235 nan 230 238 257 258 259 254 253 251 253 257 260 255 249 249 256 259 250
296 298 301 296 288 290 293 297 303 303 296 283 281 281 269 260 256 247 247 255 272 280 292 301 262 252 262 236 240 273 294 308 314 319 317 311 302 295 nan nan nan nan nan nan 250 244 241 243 247 254 248 244 262 256 251 243 251 252 256 252 nan 269 nan nan nan nan 245 nan 243 242 243 249 257 256 252 253 256 257 260 262 254 248 247 250 250
295 294 296 288 279 280 287 300 307 309 303 285 284 283 269 248 237 234 248 273 280 277 278 272 263 238 238 237 248 279 308 312 nan 304 nan nan nan nan nan nan nan nan nan nan nan nan 234 nan nan nan 243 250 249 252 271 262 250 246 248 246 253 nan nan nan nan 273 262 240 240 241 nan 243 258 262 261 265 268 266 262 261 257 253 250 249 249
295 296 292 284 281 279 287 307 316 315 285 277 288 286 279 242 255 249 254 266 274 280 279 267 250 nan nan 241 250 288 nan nan nan nan nan nan nan nan nan nan nan nan nan nan nan nan nan nan nan nan nan nan nan nan 262 267 270 255 245 252 259 nan nan nan nan nan nan nan nan nan nan nan 256 254 nan nan nan nan nan 258 257 255 256 nan nan
302 303 295 286 281 277 278 287 341 307 268 256 259 262 240 254 264 259 252 246 257 263 nan 257 nan nan nan nan nan nan nan nan nan nan nan nan nan nan nan nan nan nan nan nan nan nan nan nan nan nan nan nan nan nan nan nan 263 267 261 250 nan nan nan nan nan nan nan nan nan nan nan nan nan nan nan nan 257 nan nan nan nan nan nan nan nan
300 296 287 281 281 281 282 284 318 278 269 240 304 255 241 248 252 253 261 247 246 244 251 260 250 nan nan 240 251 nan nan nan nan nan nan nan nan nan nan nan nan nan nan nan nan nan 234 235 234 233 231 232 nan nan 248 258 nan 261 260 271 265 260 256 nan nan nan nan nan nan nan nan nan nan nan 253 nan nan nan nan nan nan nan nan nan nan
287 286 279 277 277 285 289 283 272 258 268 303 289 271 231 241 247 248 253 248 244 249 253 248 nan nan nan nan nan nan nan nan nan nan nan nan nan nan nan nan nan nan nan nan nan nan nan nan nan nan nan nan nan nan nan nan nan 253 255 266 276 284 nan nan nan nan nan nan nan nan nan nan nan nan nan nan nan nan nan nan nan nan nan nan nan